This is the latest recevied weather packets stored in our database for station/object NEWPRT. If no packets are shown the sender has not sent any weather packets the latest 10 day(s).
| Time | Temp. | Humidity | Pressure | Rain* | Wind** | Luminosity | Snow |
|---|---|---|---|---|---|---|---|
| 1778270056 | - | 38% | 1023.5 hPa | 0 mm | - | - | - |
| 1778269733 | - | 41% | 1023.2 hPa | 0 mm | - | - | - |
| 1778269410 | - | 44% | 1023.6 hPa | 0 mm | - | - | - |
| 1778269087 | - | 41% | 1023.5 hPa | 0 mm | - | - | - |
| 1778268764 | - | 42% | 1023.5 hPa | 0 mm | - | - | - |
| 1778268441 | - | 43% | 1023.5 hPa | 0 mm | - | - | - |
| 1778268118 | - | 44% | 1023.5 hPa | 0 mm | - | - | - |
| 1778267795 | - | 41% | 1023.4 hPa | 0 mm | - | - | - |
| 1778267472 | - | 45% | 1023.4 hPa | 0 mm | - | - | - |
| 1778267149 | - | 42% | 1023.4 hPa | 0 mm | - | - | - |
| 1778266826 | - | 44% | 1023.4 hPa | 0 mm | - | - | - |
| 1778266503 | - | 45% | 1023.4 hPa | 0 mm | - | - | - |
| 1778266180 | - | 44% | 1023.3 hPa | 0 mm | - | - | - |
| 1778265857 | - | 46% | 1023.2 hPa | 0 mm | - | - | - |
| 1778265534 | - | 50% | 1023.4 hPa | 0 mm | - | - | - |
| 1778265212 | - | 50% | 1023.3 hPa | 0 mm | - | - | - |
| 1778264889 | - | 53% | 1023.2 hPa | 0 mm | - | - | - |
| 1778264565 | - | 54% | 1023 hPa | 0 mm | - | - | - |
| 1778264242 | - | 56% | 1023 hPa | 0 mm | - | - | - |
| 1778263919 | - | 57% | 1023.1 hPa | 0 mm | - | - | - |
| 1778263596 | - | 57% | 1023.1 hPa | 0 mm | - | - | - |
| 1778263273 | - | 55% | 1023.1 hPa | 0 mm | - | - | - |
| 1778262950 | - | 56% | 1023 hPa | 0 mm | - | - | - |
| 1778262627 | - | 56% | 1023 hPa | 0 mm | - | - | - |
| 1778262304 | - | 55% | 1023.1 hPa | 0 mm | - | - | - |
* Rain latest hour (hover to see other rain measurements)
** Current wind speed in m/s (hover to see current wind gust speed)